Retour au catalogue

SL-6 R/B(2)

ActifHEO
NORAD 20333·ROCKET BODY·🇷🇺 Russia

Lancé Nov 23, 1989 depuis Plesetsk Cosmodrome

Loading…

Prochains Passages (prochaines 24 heures)

TLE

FraisSource: Space-Track

Époque: Sep 14, 2026, 08:34 UTC

1 20333U 89091D   26257.35738922  .00000158  00000-0  00000-0 0  9993
2 20333  69.4902 129.8620 5433285  46.1522  77.0356  2.04210302247534

Suivez SL-6 R/B(2) en temps réel avec AllMySat

Download on the App Store